This is the latest recevied weather packets stored in our database for station/object WB5CFT. If no packets are shown the sender has not sent any weather packets the latest 10 day(s).
| Time | Temp. | Humidity | Pressure | Rain* | Wind** | Luminosity | Snow |
|---|---|---|---|---|---|---|---|
| 1777490467 | 25.56° C | 31% | 1015.7 hPa | 0 mm | - | 437 W/m² | - |
| 1777490162 | 25° C | 30% | 1015.9 hPa | 0 mm | - | 384 W/m² | - |
| 1777489860 | 25° C | 33% | 1015.8 hPa | 0 mm | - | 399 W/m² | - |
| 1777489557 | 23.89° C | 33% | 1015.9 hPa | 0 mm | - | 338 W/m² | - |
| 1777489254 | 24.44° C | 31% | 1016 hPa | 0 mm | - | 362 W/m² | - |
| 1777488951 | 24.44° C | 32% | 1016.2 hPa | 0 mm | - | 348 W/m² | - |
| 1777488648 | 24.44° C | 33% | 1016.3 hPa | 0 mm | - | 356 W/m² | - |
| 1777488346 | 25° C | 32% | 1016.3 hPa | 0 mm | - | 409 W/m² | - |
| 1777488044 | 24.44° C | 32% | 1016.4 hPa | 0 mm | - | 349 W/m² | - |
| 1777487736 | 24.44° C | 33% | 1016.6 hPa | 0 mm | - | 360 W/m² | - |
| 1777487434 | 23.89° C | 35% | 1016.6 hPa | 0 mm | - | 374 W/m² | - |
| 1777487131 | 24.44° C | 34% | 1016.9 hPa | 0 mm | - | 421 W/m² | - |
| 1777486826 | 24.44° C | 35% | 1017.1 hPa | 0 mm | - | 414 W/m² | - |
| 1777486524 | 23.89° C | 35% | 1017.2 hPa | 0 mm | - | 585 W/m² | - |
| 1777486221 | 23.89° C | 35% | 1017.1 hPa | 0 mm | - | 862 W/m² | - |
| 1777485919 | 23.89° C | 36% | 1017.1 hPa | 0 mm | - | 880 W/m² | - |
| 1777485615 | 23.33° C | 35% | 1017.1 hPa | 0 mm | - | 757 W/m² | - |
| 1777485310 | 23.89° C | 36% | 1017.3 hPa | 0 mm | - | 924 W/m² | - |
| 1777485007 | 24.44° C | 36% | 1017.3 hPa | 0 mm | - | 881 W/m² | - |
| 1777484704 | 23.33° C | 36% | 1017.5 hPa | 0 mm | - | 821 W/m² | - |
| 1777484400 | 22.78° C | 37% | 1017.5 hPa | 0 mm | - | 377 W/m² | - |
| 1777484097 | 23.89° C | 35% | 1017.5 hPa | 0 mm | - | 764 W/m² | - |
| 1777483792 | 23.89° C | 30% | 1017.7 hPa | 0 mm | - | 781 W/m² | - |
| 1777483489 | 23.33° C | 29% | 1017.4 hPa | 0 mm | - | 527 W/m² | - |
| 1777483184 | 22.78° C | 29% | 1018.1 hPa | 0 mm | - | 742 W/m² | - |
* Rain latest hour (hover to see other rain measurements)
** Current wind speed in m/s (hover to see current wind gust speed)